Weather History for Spartanburg, SC

Change the Weather History Date:

Friday, January 11, 2013

  Actual Average (KGSP) Record (KGSP)
Temperature  
Mean Temperature 52 °F 42 °F  
Max Temperature 55 °F 52 °F 79 °F (1949)
Min Temperature 50 °F 32 °F 2 °F (1982)
Degree Days  
Heating Degree Days 12 23  
Month to date heating degree days 253  
Since 1 July heating degree days 1456  
Cooling Degree Days 0 0  
Month to date cooling degree days 0  
Year to date cooling degree days 0  
Growing Degree Days 2 (Base 50)    
Moisture  
Dew Point 52 °F    
Average Humidity 100    
Maximum Humidity 100    
Minimum Humidity 100    
Precipitation  
Precipitation 0.26 in 0.13 in 2.67 in (1918)
Month to date precipitation 1.36  
Year to date precipitation 1.36  
Snow  
Snow 0.00 in 0.10 in 3.00 in (1996)
Month to date snowfall 0.8  
Since 1 July snowfall 1.3  
Snow Depth -    
Sea Level Pressure  
Sea Level Pressure 30.23 in    
Wind  
Wind Speed 5 mph (NNE)    
Max Wind Speed 9 mph    
Max Gust Speed -    
Visibility 4 miles    
Events Rain    
T = Trace of Precipitation, MM = Missing Value Source: NWS Daily Summary

Daily Weather History Graph

Daily Weather History Graph

Search for Another Location

Airport:

Trip Planner

Search our weather history database for the weather conditions in past years. The results will help you decide how hot, cold, wet, or windy it might be!

Date:

Astronomy

Jan. 11, 2013 Rise Set
Actual Time 7:35 AM EST 5:36 PM EST
Civil Twilight 7:08 AM EST 6:03 PM EST
Nautical Twilight 6:37 AM EST 6:35 PM EST
Astronomical Twilight 6:06 AM EST 7:05 PM EST
Moon 7:09 AM EST (1/11) 5:50 PM EST (1/11)
Length of Visible Light 10h 55m
Length of Day
10h 00m
Waning Crescent, 0% of the Moon is Illuminated
Jan 11
Waning Crescent
Jan 11
New
Jan 18
First Quarter
Jan 26
Full
Feb 3
Last Quarter

Hourly Weather History & Observations

Time (EST) Temp. Dew Point Humidity Pressure Visibility Wind Dir Wind Speed Gust Speed Precip Events Conditions
12:15 AM 55.4 °F 55.4 °F 100% 30.34 in 10.0 mi ENE 3.5 mph - N/A   Overcast
12:55 AM 55.4 °F 55.4 °F 100% 30.33 in 10.0 mi NNE 4.6 mph - N/A   Overcast
1:15 AM 55.4 °F 55.4 °F 100% 30.32 in 10.0 mi NE 4.6 mph - N/A   Overcast
1:35 AM 55.4 °F 55.4 °F 100% 30.32 in 10.0 mi NE 5.8 mph - N/A   Overcast
1:55 AM 55.4 °F 55.4 °F 100% 30.31 in 10.0 mi NE 4.6 mph - N/A   Overcast
2:15 AM 55.4 °F 55.4 °F 100% 30.32 in 10.0 mi NNE 5.8 mph - N/A   Overcast
2:35 AM 55.4 °F 55.4 °F 100% 30.31 in 7.0 mi NE 5.8 mph - N/A   Overcast
2:55 AM 55.4 °F 55.4 °F 100% 30.30 in 5.0 mi NE 6.9 mph - N/A   Overcast
3:15 AM 53.6 °F 53.6 °F 100% 30.30 in 2.5 mi North 8.1 mph - N/A   Overcast
3:35 AM 51.8 °F 51.8 °F 100% 30.29 in 2.5 mi NNE 6.9 mph - N/A   Overcast
3:55 AM 51.8 °F 51.8 °F 100% 30.28 in 2.5 mi NNE 8.1 mph - 0.01 in   Overcast
4:15 AM 51.8 °F 51.8 °F 100% 30.27 in 1.5 mi NE 5.8 mph - N/A Rain Rain
4:35 AM 51.8 °F 51.8 °F 100% 30.26 in 1.5 mi NE 5.8 mph - N/A   Light Drizzle
4:55 AM 51.8 °F 51.8 °F 100% 30.26 in 1.5 mi Calm Calm - 0.01 in Rain Light Rain
5:15 AM 51.8 °F 51.8 °F 100% 30.27 in 2.0 mi North 4.6 mph - 0.01 in   Drizzle
5:35 AM 51.8 °F 51.8 °F 100% 30.27 in 2.0 mi NNE 4.6 mph - 0.02 in   Light Drizzle
5:55 AM 51.8 °F 51.8 °F 100% 30.26 in 2.0 mi NNE 8.1 mph - 0.02 in   Light Drizzle
6:15 AM 51.8 °F 51.8 °F 100% 30.25 in 1.8 mi NE 5.8 mph - 0.01 in   Drizzle
6:35 AM 51.8 °F 51.8 °F 100% 30.25 in 2.0 mi ENE 4.6 mph - 0.01 in   Light Drizzle
6:55 AM 51.8 °F 51.8 °F 100% 30.25 in 1.8 mi East 3.5 mph - 0.02 in   Overcast
7:15 AM 51.8 °F 51.8 °F 100% 30.25 in 2.0 mi Calm Calm - N/A Rain Light Rain
7:35 AM 51.8 °F 51.8 °F 100% 30.26 in 2.0 mi North 5.8 mph - N/A   Drizzle
7:55 AM 51.8 °F 51.8 °F 100% 30.26 in 2.0 mi NNE 4.6 mph - 0.01 in   Drizzle
8:15 AM 51.8 °F 51.8 °F 100% 30.26 in 1.5 mi NNE 5.8 mph - 0.01 in   Drizzle
8:35 AM 51.8 °F 51.8 °F 100% 30.27 in 1.5 mi NNE 4.6 mph - 0.01 in   Drizzle
8:55 AM 51.8 °F 51.8 °F 100% 30.27 in 1.5 mi NE 5.8 mph - 0.01 in Rain Light Rain
9:15 AM 51.8 °F 51.8 °F 100% 30.27 in 1.8 mi NNE 8.1 mph - 0.01 in   Heavy Drizzle
9:35 AM 51.8 °F 51.8 °F 100% 30.27 in 2.5 mi NNE 5.8 mph - 0.04 in Rain Heavy Rain
9:55 AM 51.8 °F 51.8 °F 100% 30.28 in 2.5 mi NNE 4.6 mph - 0.06 in   Heavy Drizzle
10:35 AM 51.8 °F 51.8 °F 100% 30.27 in 7.0 mi NNW 5.8 mph - 0.02 in   Light Drizzle
10:55 AM 51.8 °F 51.8 °F 100% 30.26 in 7.0 mi NNE 3.5 mph - 0.02 in   Overcast
11:15 AM 51.8 °F 51.8 °F 100% 30.25 in 10.0 mi North 5.8 mph - N/A   Overcast
11:35 AM 51.8 °F 51.8 °F 100% 30.25 in 4.0 mi North 5.8 mph - N/A Rain Rain
11:55 AM 51.8 °F 51.8 °F 100% 30.23 in 5.0 mi NNE 8.1 mph - N/A   Light Drizzle
12:15 PM 51.8 °F 51.8 °F 100% 30.22 in 3.0 mi NNE 5.8 mph - 0.02 in   Drizzle
12:35 PM 51.8 °F 51.8 °F 100% 30.22 in 4.0 mi North 6.9 mph - 0.03 in   Drizzle
12:55 PM 51.8 °F 51.8 °F 100% 30.22 in 3.0 mi North 6.9 mph - 0.04 in   Drizzle
1:15 PM 51.8 °F 51.8 °F 100% 30.20 in 4.0 mi North 5.8 mph - 0.01 in   Light Drizzle
1:35 PM 51.8 °F 51.8 °F 100% 30.20 in 3.0 mi North 8.1 mph - 0.01 in   Drizzle
1:55 PM 51.8 °F 51.8 °F 100% 30.20 in 3.0 mi North 5.8 mph - 0.02 in   Drizzle
2:15 PM 51.8 °F 51.8 °F 100% 30.19 in 4.0 mi NNE 6.9 mph - 0.02 in   Drizzle
2:35 PM 51.8 °F 51.8 °F 100% 30.19 in 4.0 mi NNE 9.2 mph - 0.03 in   Drizzle
3:15 PM 51.8 °F 51.8 °F 100% 30.19 in 10.0 mi North 6.9 mph - N/A   Overcast
3:35 PM 51.8 °F 51.8 °F 100% 30.19 in 10.0 mi NNE 9.2 mph - N/A   Overcast
3:55 PM 51.8 °F 51.8 °F 100% 30.18 in 10.0 mi NE 4.6 mph - N/A   Overcast
4:15 PM 51.8 °F 51.8 °F 100% 30.17 in 10.0 mi NE 3.5 mph - N/A   Overcast
4:35 PM 51.8 °F 51.8 °F 100% 30.17 in 10.0 mi NE 4.6 mph - N/A   Overcast
4:55 PM 51.8 °F 51.8 °F 100% 30.17 in 10.0 mi NNE 5.8 mph - N/A   Overcast
5:15 PM 51.8 °F 51.8 °F 100% 30.18 in 7.0 mi NNE 4.6 mph - N/A   Overcast
5:35 PM 50.0 °F 50.0 °F 100% 30.17 in 5.0 mi NE 3.5 mph - N/A   Overcast
5:55 PM 50.0 °F 50.0 °F 100% 30.17 in 4.0 mi NNE 3.5 mph - N/A   Overcast
6:15 PM 50.0 °F 50.0 °F 100% 30.17 in 2.0 mi NNE 3.5 mph - N/A   Drizzle
6:35 PM 50.0 °F 50.0 °F 100% 30.18 in 1.5 mi NNE 5.8 mph - N/A   Overcast
6:55 PM 50.0 °F 50.0 °F 100% 30.19 in 1.2 mi North 3.5 mph - N/A   Overcast
7:15 PM 51.8 °F 51.8 °F 100% 30.19 in 1.0 mi North 5.8 mph - N/A   Overcast
7:35 PM 51.8 °F 51.8 °F 100% 30.19 in 0.8 mi NNE 4.6 mph - N/A   Drizzle
7:55 PM 51.8 °F 51.8 °F 100% 30.20 in 1.2 mi NNE 3.5 mph - N/A   Heavy Drizzle
8:15 PM 51.8 °F 51.8 °F 100% 30.19 in 1.8 mi NE 5.8 mph - N/A   Light Drizzle
8:35 PM 51.8 °F 51.8 °F 100% 30.19 in 1.8 mi NNE 4.6 mph - N/A   Drizzle
8:55 PM 51.8 °F 51.8 °F 100% 30.18 in 2.5 mi Calm Calm - N/A   Drizzle
9:15 PM 51.8 °F 51.8 °F 100% 30.19 in 2.5 mi Calm Calm - N/A Rain Rain
9:35 PM 51.8 °F 51.8 °F 100% 30.18 in 3.0 mi East 3.5 mph - 0.01 in   Light Drizzle
9:55 PM 51.8 °F 51.8 °F 100% 30.19 in 4.0 mi Calm Calm - 0.01 in   Overcast
10:15 PM 51.8 °F 51.8 °F 100% 30.19 in 3.0 mi Calm Calm - N/A   Overcast
10:35 PM 51.8 °F 51.8 °F 100% 30.18 in 3.0 mi Calm Calm - N/A   Overcast
10:55 PM 51.8 °F 51.8 °F 100% 30.18 in 4.0 mi Calm Calm - N/A   Overcast
11:15 PM 51.8 °F 51.8 °F 100% 30.18 in 5.0 mi Calm Calm - N/A   Overcast
11:35 PM 51.8 °F 51.8 °F 100% 30.17 in 2.5 mi Calm Calm - N/A   Overcast